Location: Newark
(25.4800°N, 85.7200°E)
Time: 12:04:17
(UTC+00:00)

Explorer 11/Cluster Stage 4 - Pass Details

Date: 28 August 2019
Orbit: 467 x 1260 km, 28.8° (Epoch: 15 September)

Event Time Altitude Azimuth Distance (km) Brightness Sun altitude
Rises 23:46:28 0° 215° (SW) 3,112 9.2 -3.0°
Reaches altitude 10° 23:49:05 10° 201° (SSW) 2,324 8.7 -2.4°
Maximum altitude 23:53:38 26° 147° (SSE) 1,695 8.6 -1.4°
Drops below altitude 10° 23:59:02 10° 94° (E) 2,797 11.2 -0.2°
Sets 00:02:29 0° 82° (E) 3,888 13.9 0.6°
